N5CNB Weather Reports


Display with metric or nautical units.
time (UTC)temp
F
wind
direction
speed
MPH
gust
MPH
rain 1hr
in
rain 24hr
in
rain mn
in
humidity
%
barometer
mb
20260904143023 82 75 1.0 4.0 0.00 0.72 0.00 87 1015.2
20260904141536 81 76 1.0 5.0 0.00 0.72 0.00 89 1015.3
20260904140031 80 98 1.0 4.0 0.00 0.72 0.00 90 1015.1
20260904134534 80 88 0.0 3.0 0.00 0.72 0.00 91 1015.0
20260904133022 79 195 0.0 0.0 0.00 0.72 0.00 92 1014.7
20260904131527 79 210 0.0 3.0 0.00 0.72 0.00 92 1014.4
20260904130006 78 212 0.0 3.0 0.00 0.72 0.00 92 1014.5
20260904124510 78 75 1.0 5.0 0.00 0.72 0.00 92 1014.4
20260904123019 78 210 0.0 0.0 0.00 0.72 0.00 92 1014.3
20260904121533 77 233 0.0 0.0 0.00 0.72 0.00 92 1014.0
20260904120033 77 233 0.0 0.0 0.00 0.72 0.00 92 1013.8
20260904114508 77 233 0.0 0.0 0.00 0.72 0.00 92 1013.8
20260904113029 78 233 0.0 0.0 0.00 0.72 0.00 92 1013.8
20260904111525 78 233 0.0 0.0 0.00 0.72 0.00 92 1013.8
20260904110028 78 233 0.0 0.0 0.00 0.72 0.00 92 1013.8
20260904104532 78 218 0.0 0.0 0.00 0.72 0.00 92 1013.9
20260904103030 78 218 0.0 0.0 0.00 0.72 0.00 91 1013.8
20260904101516 78 203 0.0 1.0 0.00 0.72 0.00 91 1013.8
20260904100025 78 227 0.0 0.0 0.00 0.72 0.00 91 1013.5
20260904094529 78 227 0.0 0.0 0.00 0.72 0.00 91 1013.5
20260904093033 78 227 0.0 0.0 0.00 0.72 0.00 91 1013.4
20260904091538 78 230 0.0 0.0 0.00 0.72 0.00 91 1013.4
20260904090019 78 144 0.0 0.0 0.00 0.72 0.00 91 1013.3
20260904084528 78 191 0.0 0.0 0.00 0.72 0.00 91 1013.4
20260904083028 78 180 0.0 1.0 0.00 0.72 0.00 91 1013.5
20260904081532 78 204 0.0 0.0 0.00 0.72 0.00 91 1013.5
20260904080044 78 243 0.0 0.0 0.00 0.72 0.00 91 1013.6
20260904074529 78 243 0.0 0.0 0.00 0.72 0.00 91 1013.7
20260904073035 78 243 0.0 1.0 0.00 0.72 0.00 91 1013.7
20260904071531 78 196 0.0 2.0 0.00 0.72 0.00 91 1013.9
20260904070034 78 142 0.0 4.0 0.00 0.72 0.00 90 1014.1
20260904064532 78 137 0.0 1.0 0.00 0.72 0.00 90 1013.9
20260904063025 78 139 0.0 2.0 0.00 0.72 0.00 90 1014.0
20260904061528 78 77 2.0 3.0 0.00 0.72 0.00 90 1013.9
20260904060031 78 154 0.0 0.0 0.00 0.72 0.00 90 1014.0
20260904054537 78 214 0.0 1.0 0.00 0.72 0.00 90 1013.9
20260904053033 78 201 1.0 3.0 0.00 0.72 0.00 90 1013.7
20260904051531 78 127 2.0 3.0 0.00 0.72 0.00 90 1013.7
20260904050032 78 191 1.0 5.0 0.00 0.72 0.00 90 1013.6
20260904044540 78 177 1.0 5.0 0.00 0.74 0.72 89 1013.8
20260904043032 78 146 2.0 4.0 0.00 0.77 0.72 89 1013.6
20260904041532 78 181 1.0 3.0 0.00 0.81 0.72 89 1013.8
20260904040025 78 134 0.0 3.0 0.00 0.81 0.72 89 1013.8
20260904034507 79 116 1.0 4.0 0.00 0.81 0.72 89 1013.9
20260904033013 79 142 1.0 4.0 0.00 0.82 0.72 89 1013.9
20260904031518 78 121 1.0 6.0 0.00 0.84 0.72 89 1013.7
20260904030028 78 134 2.0 10.0 0.00 0.85 0.72 88 1013.5
20260904024528 78 49 3.0 8.0 0.00 0.85 0.72 88 1013.6
20260904023010 78 108 2.0 10.0 0.00 0.85 0.72 88 1013.4
20260904021516 78 133 3.0 14.0 0.00 0.85 0.72 88 1013.2
20260904020028 78 86 6.0 9.0 0.00 0.85 0.72 88 1013.0
20260904014527 78 132 4.0 8.0 0.00 0.85 0.72 88 1012.9
20260904013035 78 99 3.0 8.0 0.00 0.85 0.72 88 1012.9
20260904011510 78 112 3.0 5.0 0.00 0.85 0.72 88 1012.7
20260904010014 78 155 1.0 9.0 0.00 0.85 0.72 88 1012.6
20260904004523 78 89 3.0 10.0 0.00 0.85 0.72 88 1012.4
20260904003027 78 71 4.0 8.0 0.00 0.85 0.72 87 1012.4
20260904001527 78 127 4.0 8.0 0.00 0.85 0.72 87 1012.4
20260904000011 78 68 3.0 12.0 0.00 0.85 0.72 87 1012.5
20260903234514 78 105 5.0 11.0 0.00 0.85 0.72 87 1012.4
20260903233023 78 87 6.0 10.0 0.00 0.85 0.72 88 1012.6
20260903231526 78 58 3.0 8.0 0.01 0.85 0.72 88 1012.8
20260903230037 78 81 3.0 7.0 0.01 0.85 0.72 89 1012.5
20260903224510 78 99 4.0 10.0 0.01 0.85 0.72 88 1012.6
20260903223022 77 76 4.0 8.0 0.01 0.85 0.72 89 1012.6
20260903221535 76 82 3.0 9.0 0.00 0.84 0.71 90 1012.5
20260903220053 76 64 5.0 7.0 0.00 0.84 0.71 90 1012.5
20260903214530 75 64 4.0 7.0 0.13 0.84 0.71 90 1012.5
20260903213014 75 134 1.0 4.0 0.42 0.84 0.71 90 1012.9
20260903211521 75 90 2.0 6.0 0.68 0.84 0.71 90 1013.2
20260903210026 75 176 4.0 17.0 0.71 0.84 0.71 90 1013.7
20260903204530 75 109 10.0 19.0 0.58 0.71 0.58 89 1014.0
20260903203032 75 120 12.0 24.0 0.29 0.42 0.29 87 1014.3
20260903201520 80 102 10.0 27.0 0.03 0.16 0.03 79 1014.5
20260903200037 89 115 14.0 23.0 0.00 0.13 0.00 63 1013.1
20260903194539 92 53 9.0 14.0 0.00 0.13 0.00 59 1013.1
20260903193030 94 93 2.0 6.0 0.00 0.13 0.00 55 1012.8
20260903191540 95 85 1.0 7.0 0.00 0.13 0.00 52 1013.0
20260903190019 96 229 0.0 3.0 0.00 0.13 0.00 54 1013.0
20260903184523 94 159 2.0 8.0 0.00 0.13 0.00 56 1013.3
20260903183044 96 153 0.0 6.0 0.00 0.13 0.00 53 1013.4
20260903181508 97 148 0.0 5.0 0.00 0.13 0.00 54 1013.5
20260903180011 94 229 6.0 11.0 0.00 0.13 0.00 58 1013.9
20260903174530 93 143 8.0 13.0 0.00 0.13 0.00 60 1014.1
20260903173027 93 22 0.0 4.0 0.00 0.13 0.00 60 1014.4
20260903171529 93 151 2.0 6.0 0.00 0.13 0.00 62 1014.5
20260903170013 92 198 3.0 7.0 0.00 0.13 0.00 62 1014.7
20260903164517 91 281 3.0 9.0 0.00 0.13 0.00 63 1014.8
20260903163020 90 235 5.0 9.0 0.00 0.13 0.00 66 1014.6
20260903161534 90 135 5.0 12.0 0.00 0.13 0.00 69 1014.7
20260903160031 88 203 2.0 12.0 0.00 0.13 0.00 74 1014.7
20260903154511 87 252 3.0 10.0 0.00 0.13 0.00 75 1014.8
20260903153013 86 214 2.0 11.0 0.00 0.13 0.00 78 1014.7
20260903151522 86 246 4.0 9.0 0.00 0.13 0.00 80 1014.8
20260903150030 85 262 4.0 8.0 0.00 0.13 0.00 81 1014.8
20260903144531 84 255 4.0 10.0 0.00 0.13 0.00 82 1014.8